DMSP 5D-2 F13 DEB, 40416

Orbit data source: Space-Track

DMSP 5D-2 F13 DEB, 40416 is space debris in SSO originally from a launch on Fri, 24 Mar 1995 UTC launched from the Air Force Western Test Range (AFWTR). Debris objects in space refer to the collection of defunct objects orbiting the Earth. Examples of debris include non-operational satellites, rocket bodies, and fragments generated from explosions, collisions, or faulty payload assembly.

Loading next visibility...
Identifier
40416, 1995-015AD
Orbit
SSO
Last TLE update
11 hours ago
Origin
Manufacturer
Unknown
Mission
Spacecraft
Bus & Motor
Unknown
Mass
Unknown
Launch date (UTC)
1995-03-24 (30 years ago)
Launch vehicle
Unknown
Launch site
Air Force Western Test Range (AFWTR)
Object type
Payload
Rocket body
Debris
Shape & HBR
Unknown
Radar Cross Section
Small (<0.1 m²)

Expand to show TLE details & history

TLE from 11 hours ago
0 DMSP 5D-2 F13 DEB
1 40416U 95015AD  25199.51412206  .00001563  00000-0  66711-3 0  9991
2 40416  98.7640 220.3008 0004694   7.3485 352.7763 14.26499097538152
Epoch: 2025-07-18T12:20Z
TLE epoch observation values (Epoch: 2025-07-18T12:20:20.145Z)
Latitude
-0.00004°
Longitude
98.65238°
Altitude
803.034 km
Speed
7.454 km/s
True Right ascension
14h 41m 12s
True Declination
0° 00' 00"
Sunlit
Object was in daylight at epoch
Visualization orbit readout
Latitude
-3.08418°
Longitude
-81.36424°
Altitude
810.193 km
Speed
7.446 km/s
Apparent Right ascension
01h 38m 28s
Apparent Declination
-21° 19' 44"
Sunlit
Object is in daylight
Visualization observer readout
Local Sidereal Time
12:05:14
Azimuth
306.223° NW
Elevation
-62.815°
Doppler factor
1
Orbital elements
Apogee altitude
803.979 km
Perigee altitude
797.24 km
Semi-major axis
7,178.746 km
Eccentricity
0.00047
Inclination
98.764°
RAAN
220.3008°
Arg. of periapsis
7.3485°
True anomaly
352.76953°
Mean anomaly
352.7763°
Eccentric anomaly
352.77292°
Mean motion
3.56837 °/min
Orbital period
100.89 mins
BSTAR
0.00066711
Loading maneuver chart data...
Loading SW <> Apogee altitude chart data...
|